Location: Espelette
(43.3402°N, 1.4474°W)
Time: 22:32:06
(UTC+00:00)

Cosmos 1315 Rocket - Pass Details

Date: 19 May 2025
Orbit: 498 x 525 km, 81.2° (Epoch: 12 June)

Event Time Altitude Azimuth Distance (km) Brightness Sun altitude
Exits shadow 20:55:41 17° 98° (E) 1,385 4.4 -13.6°
Maximum altitude 20:56:10 17° 89° (E) 1,370 4.4 -13.6°
Drops below altitude 10° 20:58:45 10° 47° (NE) 1,771 5.4 -14.0°
Sets 21:01:27 0° 28° (NNE) 2,663 6.6 -14.3°
